Wind_Speed
2 1 2 2 2 2 1 3 4 4 6 8 9 9 6 4 3 0 1 2 5 9 11 13 14 13 11 10 12 13 15 18 19 18 14 12 11 10 9 9 9 9 7 6 6 4 3 8 13
1 1 2 3 3 3 2 3 2 4 7 8 8 7 6 5 4 2 1 0 2 5 7 10 12 12 12 10 10 11 14 17 18 18 15 13 12 11 10 11 12 12 9 7 7 5 3 4 10
0 2 3 4 3 2 3 3 1 4 5 6 7 7 6 6 6 5 3 3 2 1 3 7 9 10 11 10 9 9 11 14 16 17 15 14 14 14 13 12 13 13 12 8 6 6 3 1 7
1 1 3 5 4 1 3 4 2 2 4 5 5 6 7 7 7 6 5 4 4 3 2 3 6 8 9 9 8 7 8 11 14 16 16 15 14 15 14 12 12 12 11 10 6 5 5 2 5
4 4 1 1 2 2 3 4 4 2 3 5 5 6 8 9 9 8 6 4 5 5 4 1 3 5 7 7 6 6 6 8 11 14 17 17 16 16 16 15 13 12 10 9 7 6 5 4 3
7 6 5 5 4 3 3 4 4 0 3 5 6 5 6 8 9 8 7 4 4 5 5 3 0 3 5 6 6 5 4 4 7 10 14 16 17 17 17 17 16 14 11 9 7 6 5 5 1
10 9 7 5 4 4 3 2 2 2 4 5 6 6 5 6 7 7 6 5 5 6 7 6 3 1 2 4 5 5 4 3 4 6 9 11 13 15 15 16 17 16 13 10 8 5 3 2 1
12 10 9 9 7 5 4 3 3 4 6 7 8 7 6 6 6 7 7 6 5 6 8 8 6 4 3 2 3 5 5 6 6 7 7 7 9 10 12 14 16 16 14 10 7 6 3 2 3
12 11 11 9 8 8 7 5 4 5 7 8 8 8 8 7 7 7 7 6 6 7 8 10 10 8 7 5 5 4 5 7 9 9 8 7 6 8 8 10 12 13 13 11 8 6 6 6 6
13 12 12 10 10 10 9 8 7 6 7 8 9 9 9 10 10 8 8 7 6 7 8 10 11 11 11 9 8 7 8 8 9 10 10 8 6 6 7 8 9 11 12 12 10 8 7 8 9
13 13 13 11 12 12 12 13 11 9 8 9 11 12 12 13 13 13 12 10 8 8 8 10 11 13 13 11 9 9 10 11 11 11 11 10 9 7 8 8 9 9 11 12 12 11 9 8 9
16 15 14 14 14 15 16 16 16 15 14 13 14 15 13 13 15 16 16 15 12 9 9 9 11 12 13 13 12 11 12 13 14 14 14 13 12 9 9 10 10 10 11 11 12 12 11 9 8
18 18 17 16 16 17 18 19 19 20 20 18 17 17 15 14 14 17 18 19 18 15 12 10 10 12 13 14 15 14 15 15 16 16 16 16 15 13 11 12 14 13 14 12 11 11 9 11 11
21 21 21 21 21 21 22 22 23 22 23 22 20 20 18 15 14 16 18 20 21 20 16 14 13 14 16 17 17 17 18 17 17 17 18 17 16 15 14 15 18 18 16 15 15 15 12 10 11
25 25 25 26 27 28 29 27 27 27 26 26 25 24 23 20 17 18 20 22 22 22 20 18 17 18 20 21 20 19 18 17 15 16 17 17 17 17 17 17 19 19 17 16 20 22 20 15 11
30 31 31 31 33 33 34 32 32 32 31 30 30 29 28 25 23 21 21 22 23 23 23 21 19 20 21 20 18 15 14 14 14 14 16 17 18 19 19 19 20 19 19 20 23 24 23 19 15
34 36 36 37 38 38 39 37 35 37 36 35 35 34 33 31 28 24 22 21 22 23 24 24 22 20 20 20 18 16 15 15 15 14 15 18 19 20 20 20 20 20 21 23 25 25 24 22 19
36 38 39 40 41 41 42 41 40 42 43 41 41 41 39 37 34 29 25 22 23 25 26 27 26 23 21 22 22 20 18 17 16 15 17 20 21 21 20 21 21 21 24 26 27 26 25 25 25
36 38 39 40 41 42 42 42 43 45 45 44 44 45 44 41 38 32 28 25 25 27 27 28 29 28 24 23 23 21 19 18 18 17 19 20 22 21 20 21 22 23 26 29 28 26 26 27 28
35 36 38 39 41 41 42 42 44 45 46 45 44 44 43 42 40 35 30 27 25 29 29 30 32 33 29 26 24 21 19 19 19 20 21 23 24 22 21 22 24 26 27 27 27 26 26 28 29
34 35 36 37 38 39 40 41 42 44 46 47 45 43 42 41 39 37 33 30 27 29 30 31 34 36 35 31 27 24 23 22 21 21 22 24 25 24 24 25 26 26 26 26 26 26 26 26 28
33 34 35 35 34 35 36 37 36 38 40 43 44 44 41 40 38 37 36 33 32 31 32 33 36 38 38 33 28 26 24 23 22 23 24 25 26 26 25 26 26 25 24 24 24 25 25 26 27
38 38 38 37 36 36 35 37 37 36 35 35 37 40 41 39 37 36 36 35 36 37 37 38 39 40 41 36 30 26 24 23 23 24 26 27 27 26 26 26 25 23 22 23 24 25 26 27 27
42 43 43 43 41 39 36 36 36 34 32 31 31 32 37 39 37 36 35 36 39 40 42 42 43 43 44 40 33 28 24 23 25 27 27 27 27 26 26 25 22 21 22 23 24 26 26 26 26
46 46 47 47 45 42 37 36 36 32 29 27 26 27 30 36 38 38 37 37 39 42 44 45 47 47 47 43 36 29 25 24 26 27 27 27 28 27 27 25 23 23 23 24 26 27 25 23 23
48 48 47 47 45 42 39 37 35 31 28 26 24 23 25 31 37 40 40 40 40 41 43 47 50 47 49 46 37 28 23 23 24 26 27 27 27 27 27 27 26 24 24 24 26 27 24 21 21
52 50 47 44 42 40 37 33 30 27 27 25 23 21 23 27 32 36 39 40 40 40 40 44 46 46 43 37 29 23 20 21 22 23 24 25 26 27 28 29 28 26 24 23 23 24 23 20 20
35 33 30 29 27 26 26 25 24 22 23 25 24 22 22 22 25 29 33 35 38 38 37 32 34 34 32 27 21 19 18 19 20 22 24 26 28 29 30 31 30 29 26 23 23 22 21 20 19
17 16 14 12 14 17 18 17 16 16 18 21 21 20 18 15 15 19 24 27 28 32 33 29 25 25 24 20 17 16 16 17 21 24 26 28 29 30 30 29 28 27 26 24 23 21 20 19 18
16 11 6 1 3 8 10 8 8 9 10 12 13 15 14 10 6 7 6 2 6 10 12 12 13 15 14 12 12 13 16 19 22 23 24 24 25 26 27 27 26 24 23 23 23 21 19 19 18
Wind_Direction
84 31 340 314 316 44 358 309 314 343 10 17 21 21 11 346 337 42 105 54 41 47 46 41 44 55 64 63 56 51 46 42 40 41 46 49 53 52 49 49 40 29 24 23 17 2 290 229 219
70 357 336 320 304 290 285 297 327 13 22 7 3 7 10 353 338 306 218 208 29 40 45 42 41 49 56 59 55 50 45 39 38 40 47 51 51 46 39 38 35 33 28 21 18 9 352 221 208
98 61 46 21 6 315 266 268 312 48 27 10 357 347 344 340 333 326 290 260 277 346 35 46 43 46 50 53 53 49 45 39 35 36 44 49 48 44 38 32 28 28 28 23 16 10 4 280 216
216 137 76 45 44 26 250 242 202 58 20 13 354 346 347 342 336 325 315 277 260 252 263 44 47 47 45 47 51 49 44 38 34 36 41 43 42 40 38 35 29 24 25 29 23 14 15 4 225
245 214 207 10 20 358 263 233 214 192 36 25 5 347 349 347 350 343 332 295 256 240 245 238 55 51 42 40 44 44 41 37 34 37 40 42 40 39 40 39 34 28 24 26 30 23 19 14 242
254 242 252 260 257 294 259 229 241 267 37 28 14 353 349 343 344 345 340 309 268 248 247 232 181 56 44 36 35 29 22 26 24 30 38 42 42 40 40 41 40 37 27 19 21 22 20 23 17
249 247 246 247 270 289 274 243 239 9 26 30 17 356 350 348 349 342 337 317 287 264 252 237 238 262 19 29 30 21 356 341 350 5 24 38 42 41 39 38 38 37 31 21 11 3 3 18 77
247 249 256 268 286 296 287 288 311 344 1 11 10 356 352 357 0 358 339 315 294 272 259 245 241 246 258 296 358 13 355 328 321 332 352 14 32 39 40 36 33 32 30 23 3 340 305 244 204
252 255 265 274 275 285 299 305 304 314 334 345 351 352 349 345 351 354 349 323 298 284 268 254 247 248 252 261 280 314 335 332 325 324 330 341 7 22 27 30 28 26 23 21 7 330 298 264 233
252 251 262 270 266 275 291 301 305 311 315 322 324 332 341 338 335 330 328 330 309 288 275 263 255 256 256 259 274 290 303 314 322 322 319 321 337 360 5 8 13 18 18 15 12 352 309 281 260
256 257 260 265 269 275 285 290 296 312 306 305 313 322 336 336 330 324 318 313 308 298 285 274 267 263 261 259 267 285 295 300 306 311 313 314 316 329 345 353 358 2 9 15 11 5 343 301 273
257 264 263 261 265 273 279 283 281 290 296 299 305 311 324 333 330 326 321 312 305 300 294 288 279 270 264 260 262 275 287 294 296 299 304 306 310 312 322 334 346 350 352 7 10 8 359 333 292
251 258 263 266 265 266 272 279 284 289 287 290 294 300 310 319 321 320 320 315 308 300 293 293 290 277 268 264 265 270 279 290 295 297 301 304 305 304 305 312 322 326 332 346 350 352 353 346 322
252 254 257 263 267 266 269 274 280 284 285 285 288 293 299 308 312 308 308 309 306 299 291 287 285 277 272 269 270 275 281 286 292 296 299 300 302 302 297 302 313 314 317 328 336 336 335 331 323
256 258 260 262 263 264 266 269 272 273 275 278 281 284 287 293 301 303 304 303 299 294 287 283 281 276 273 271 271 275 279 280 283 289 294 296 296 300 298 301 308 306 304 313 321 321 319 315 307
255 258 260 263 264 266 268 270 270 270 270 271 273 275 275 278 286 292 297 296 292 287 283 280 276 275 275 274 272 269 268 273 280 288 294 293 291 296 296 298 299 294 292 301 306 306 304 304 300
262 263 264 264 266 268 269 272 273 271 269 268 268 268 268 270 274 278 283 281 277 274 275 276 274 273 274 273 271 270 269 273 279 286 290 286 284 285 286 285 286 281 282 290 295 295 293 294 297
266 267 268 268 268 269 270 270 270 269 268 268 267 266 266 266 268 270 273 268 261 260 262 268 270 268 267 268 270 269 265 266 269 274 281 280 275 273 272 273 275 274 278 283 288 289 287 290 292
265 266 268 268 268 269 269 269 267 266 267 266 266 267 268 267 266 266 266 261 252 250 252 259 264 264 261 261 262 259 258 259 263 271 277 275 271 267 265 269 269 272 278 281 282 283 285 287 287
266 268 269 270 271 272 271 271 270 270 268 266 263 263 266 268 268 264 259 256 251 246 245 253 260 262 256 249 248 248 253 258 265 272 275 273 269 266 264 266 268 273 277 277 278 282 284 283 283
269 271 272 273 275 276 275 274 274 273 271 268 264 262 261 261 261 260 258 253 246 244 242 249 256 259 253 242 237 238 245 253 259 264 266 265 266 268 269 270 271 273 275 275 277 281 283 282 280
270 270 271 272 274 277 278 278 276 276 275 271 265 260 259 258 257 254 253 253 244 241 241 245 251 255 251 242 235 236 238 245 252 257 257 259 263 268 273 275 277 277 276 276 278 280 282 283 283
269 268 268 269 272 276 280 283 283 281 279 276 270 261 255 254 253 248 248 249 245 244 244 244 247 251 249 243 237 234 234 240 248 255 258 260 263 268 273 276 281 283 282 283 282 281 283 285 283
276 276 276 276 276 280 283 286 286 284 281 277 272 262 252 248 246 244 244 245 245 246 246 243 244 246 247 244 238 231 233 240 248 255 260 263 266 271 274 278 287 293 294 291 287 285 288 287 282
284 284 284 283 282 285 286 287 286 283 279 274 270 262 251 243 240 241 243 244 245 246 246 242 242 245 244 243 236 232 236 242 248 253 257 262 267 272 277 284 292 294 293 292 289 286 289 286 282
284 284 284 285 285 286 285 283 281 278 274 271 268 259 246 239 238 239 240 242 242 241 242 241 241 245 246 242 235 233 238 244 247 250 256 265 274 281 287 292 294 294 293 293 290 286 287 284 283
287 285 284 282 280 279 278 275 272 271 270 265 260 254 246 240 241 243 243 241 239 237 241 243 241 241 243 237 232 233 237 243 250 260 268 276 283 289 292 293 293 293 291 291 291 290 288 282 282
295 291 286 278 271 265 260 258 260 263 265 260 254 249 247 249 255 254 250 247 241 239 241 243 239 237 236 227 231 235 238 253 267 275 281 286 292 295 295 295 294 290 286 283 287 289 286 278 275
325 315 301 273 251 239 237 244 250 256 264 263 253 247 248 262 276 280 274 263 247 238 238 241 240 233 228 225 231 236 250 265 277 285 288 292 296 296 296 295 294 293 287 280 280 282 279 272 266
14 11 9 53 200 208 215 227 239 259 272 268 256 248 247 257 288 319 321 219 180 186 200 211 209 208 214 229 245 261 273 282 289 295 300 304 305 302 297 293 293 295 289 279 276 276 271 264 260
Height
5892 5893 5894 5895 5896 5896 5895 5895 5895 5894 5893 5893 5893 5894 5893 5894 5894 5897 5896 5895 5895 5895 5895 5895 5893 5893 5893 5893 5893 5892 5891 5890 5889 5888 5887 5886 5886 5885 5885 5884 5884 5883 5883 5882 5882 5881 5881 5881 5882
5894 5895 5895 5895 5895 5896 5897 5896 5896 5895 5894 5893 5893 5893 5894 5893 5894 5894 5894 5895 5896 5896 5896 5896 5895 5894 5893 5893 5893 5893 5893 5891 5890 5889 5888 5887 5886 5886 5886 5885 5885 5884 5883 5882 5881 5881 5880 5880 5882
5894 5895 5896 5895 5894 5896 5898 5897 5896 5895 5895 5894 5893 5893 5893 5893 5894 5894 5894 5895 5895 5896 5896 5896 5896 5895 5894 5894 5894 5894 5893 5893 5891 5890 5889 5888 5887 5886 5886 5885 5884 5883 5883 5882 5882 5881 5880 5880 5881
5894 5896 5896 5896 5895 5897 5897 5897 5896 5895 5896 5895 5894 5893 5892 5893 5893 5893 5894 5894 5895 5895 5896 5896 5896 5896 5895 5895 5895 5894 5894 5894 5893 5891 5890 5888 5887 5886 5886 5885 5884 5883 5883 5882 5882 5882 5881 5880 5880
5894 5896 5897 5896 5897 5897 5898 5898 5896 5895 5895 5895 5894 5893 5893 5892 5891 5892 5892 5893 5894 5895 5895 5896 5896 5895 5895 5895 5895 5895 5895 5895 5894 5893 5891 5890 5888 5887 5886 5885 5884 5884 5883 5883 5882 5882 5881 5880 5880
5895 5896 5897 5897 5897 5898 5898 5898 5897 5895 5894 5894 5894 5893 5893 5893 5892 5891 5892 5892 5893 5894 5895 5895 5895 5895 5895 5895 5895 5895 5895 5895 5894 5893 5892 5891 5889 5888 5887 5886 5885 5884 5883 5883 5882 5881 5881 5881 5880
5894 5895 5896 5897 5898 5898 5899 5898 5898 5896 5895 5894 5894 5893 5893 5892 5892 5892 5891 5892 5892 5893 5894 5895 5895 5895 5895 5895 5895 5895 5895 5895 5894 5893 5892 5891 5890 5889 5887 5886 5885 5883 5883 5882 5881 5881 5881 5881 5881
5893 5895 5896 5897 5897 5898 5898 5898 5897 5896 5896 5895 5895 5894 5893 5892 5891 5891 5891 5892 5892 5893 5893 5894 5895 5895 5895 5895 5895 5894 5894 5894 5894 5893 5893 5891 5890 5889 5888 5886 5885 5883 5882 5881 5880 5880 5880 5880 5880
5892 5895 5895 5896 5896 5897 5897 5897 5897 5896 5896 5896 5895 5895 5894 5892 5891 5891 5891 5892 5892 5892 5892 5893 5894 5894 5894 5894 5894 5894 5893 5894 5894 5894 5893 5892 5890 5889 5888 5886 5884 5883 5881 5881 5880 5879 5879 5879 5879
5891 5892 5893 5895 5894 5895 5895 5895 5896 5896 5896 5896 5896 5895 5894 5893 5892 5891 5892 5892 5891 5891 5891 5891 5892 5892 5893 5893 5894 5893 5893 5892 5892 5892 5892 5891 5890 5889 5887 5885 5884 5882 5881 5880 5879 5879 5878 5878 5879
5889 5890 5891 5892 5892 5893 5893 5893 5894 5894 5895 5895 5895 5895 5894 5893 5892 5892 5891 5891 5890 5890 5889 5889 5889 5890 5891 5892 5892 5892 5892 5891 5891 5890 5890 5890 5889 5888 5887 5885 5883 5882 5881 5880 5879 5879 5878 5877 5878
5886 5887 5888 5889 5890 5890 5891 5891 5891 5892 5893 5894 5894 5894 5893 5892 5892 5891 5890 5890 5889 5888 5887 5886 5887 5888 5889 5890 5890 5890 5890 5889 5889 5889 5889 5889 5888 5887 5886 5884 5883 5881 5880 5879 5878 5877 5877 5876 5876
5883 5884 5884 5885 5886 5887 5887 5887 5888 5889 5889 5890 5891 5892 5892 5892 5891 5889 5888 5888 5887 5886 5885 5884 5884 5885 5887 5888 5888 5887 5887 5887 5887 5887 5887 5886 5886 5886 5885 5883 5881 5880 5878 5878 5877 5875 5875 5874 5873
5879 5880 5881 5881 5882 5882 5883 5884 5884 5885 5885 5886 5887 5888 5889 5889 5889 5887 5885 5884 5884 5884 5883 5883 5882 5882 5883 5884 5885 5885 5885 5885 5885 5884 5884 5883 5883 5882 5882 5880 5879 5878 5876 5875 5874 5873 5873 5872 5871
5874 5875 5876 5876 5876 5877 5877 5879 5879 5879 5880 5880 5881 5883 5883 5884 5885 5884 5882 5880 5880 5881 5881 5880 5880 5880 5879 5880 5881 5881 5881 5881 5881 5881 5880 5879 5879 5879 5879 5878 5876 5875 5873 5871 5871 5869 5868 5869 5868
5869 5869 5870 5870 5869 5870 5872 5874 5873 5873 5873 5874 5875 5876 5877 5878 5879 5879 5879 5876 5875 5876 5877 5876 5876 5876 5876 5876 5876 5876 5877 5877 5877 5877 5876 5876 5875 5875 5875 5874 5873 5871 5870 5868 5867 5866 5864 5864 5864
5863 5863 5863 5864 5863 5863 5864 5867 5867 5864 5866 5867 5867 5868 5868 5870 5872 5873 5873 5872 5871 5872 5873 5872 5872 5872 5872 5872 5872 5873 5873 5873 5873 5873 5872 5871 5870 5870 5870 5869 5867 5866 5865 5864 5862 5861 5860 5859 5859
5857 5856 5856 5856 5855 5856 5856 5858 5858 5854 5855 5858 5858 5858 5859 5861 5863 5864 5866 5867 5866 5866 5868 5868 5867 5868 5868 5868 5867 5868 5868 5868 5868 5868 5867 5866 5865 5865 5864 5864 5862 5861 5860 5859 5857 5856 5855 5855 5854
5849 5847 5846 5846 5845 5846 5846 5847 5845 5844 5846 5848 5849 5850 5851 5853 5855 5857 5858 5858 5859 5860 5861 5862 5863 5863 5863 5862 5861 5861 5862 5862 5863 5863 5862 5861 5860 5860 5859 5859 5858 5857 5856 5854 5853 5851 5851 5850 5849
5840 5839 5837 5836 5835 5835 5836 5837 5834 5835 5835 5837 5839 5840 5842 5844 5845 5848 5850 5850 5851 5852 5853 5855 5856 5856 5855 5854 5853 5854 5856 5857 5857 5857 5856 5855 5855 5855 5854 5854 5853 5852 5850 5848 5847 5846 5845 5844 5843
5833 5831 5829 5828 5827 5826 5826 5827 5826 5824 5824 5825 5827 5829 5831 5833 5835 5838 5840 5841 5842 5844 5846 5848 5848 5848 5846 5845 5845 5846 5848 5850 5851 5851 5850 5850 5850 5850 5849 5848 5847 5845 5844 5843 5842 5841 5839 5838 5837
5825 5822 5820 5819 5818 5816 5815 5815 5817 5815 5813 5813 5815 5818 5821 5823 5826 5828 5831 5832 5834 5836 5837 5839 5841 5840 5839 5837 5837 5838 5840 5843 5844 5844 5844 5844 5844 5843 5843 5843 5841 5839 5838 5837 5836 5835 5833 5831 5830
5816 5813 5811 5809 5808 5808 5806 5805 5807 5806 5805 5804 5805 5807 5810 5814 5817 5820 5822 5824 5825 5827 5828 5830 5832 5832 5831 5831 5831 5832 5834 5836 5837 5837 5838 5838 5838 5838 5837 5837 5835 5834 5833 5832 5830 5829 5827 5825 5824
5804 5801 5799 5797 5797 5798 5797 5796 5796 5796 5796 5796 5796 5797 5800 5804 5807 5810 5813 5814 5815 5817 5818 5821 5823 5823 5824 5825 5826 5826 5827 5829 5830 5831 5832 5832 5832 5831 5831 5830 5830 5829 5827 5825 5824 5823 5821 5819 5817
5793 5790 5786 5784 5785 5786 5787 5787 5787 5788 5788 5788 5788 5789 5790 5794 5797 5800 5802 5804 5805 5807 5808 5810 5812 5814 5817 5818 5819 5819 5820 5822 5823 5825 5825 5825 5824 5824 5824 5824 5823 5822 5820 5818 5817 5816 5815 5813 5812
5780 5777 5775 5773 5773 5775 5777 5778 5779 5781 5781 5781 5781 5781 5783 5785 5788 5790 5793 5795 5796 5797 5799 5800 5803 5806 5808 5810 5812 5812 5813 5814 5816 5817 5817 5818 5818 5818 5818 5817 5815 5814 5813 5812 5811 5810 5809 5808 5806
5763 5761 5759 5759 5759 5763 5766 5768 5771 5774 5774 5774 5774 5775 5777 5779 5781 5783 5785 5787 5788 5790 5790 5790 5792 5795 5800 5803 5805 5806 5806 5808 5810 5811 5812 5813 5813 5812 5811 5809 5807 5807 5806 5806 5805 5804 5803 5802 5801
5748 5745 5745 5745 5748 5752 5757 5761 5765 5767 5767 5767 5768 5770 5772 5774 5776 5777 5778 5779 5781 5783 5785 5784 5785 5789 5794 5797 5800 5800 5801 5804 5805 5807 5808 5808 5808 5806 5804 5802 5801 5800 5800 5800 5799 5798 5797 5796 5796
5743 5740 5737 5738 5741 5746 5751 5758 5760 5762 5763 5763 5764 5767 5769 5772 5773 5773 5773 5773 5774 5776 5778 5780 5783 5786 5790 5793 5794 5795 5797 5799 5800 5801 5802 5801 5800 5799 5797 5795 5793 5792 5793 5793 5793 5792 5791 5791 5790
5743 5739 5738 5739 5742 5745 5750 5758 5758 5760 5760 5760 5762 5765 5767 5770 5772 5772 5772 5770 5771 5772 5775 5777 5781 5784 5787 5789 5791 5793 5795 5796 5796 5796 5795 5794 5793 5792 5790 5788 5786 5785 5785 5786 5786 5785 5786 5786 5786